[[{"header":{"parameterUnit":"m.s-1","parameterCategory":1,"la1":30.2991,"la2":30.254,"lo1":-89.0895,"lo2":-89.0444,"dy":0.0017,"dx":0.0017,"nx":28,"ny":28,"refTime":"2023-07-31T09:00:00:Z","depth":0,"parameterNumber":2,"parameterNumberName":"U-component_of_WINDS"},"data":[0,0,0,0,0,0,0,0,0,0,0,0,0,0,0,0,0,0,0,0,0,0,0,0,0,0,0,0,0,0,0,0,0,0,0,0,0,0,0,0,0,0,0,0,0,0,0,0,0,0,0,0,0,0,0,0,0,0,1.5686,1.5687,0,1.5788,1.5789,1.579,1.5798,1.5797,1.5796,1.5795,1.5901,1.5905,1.5908,0,0,0,0,0,0,0,0,0,0,0,0,0,1.5497,1.55,1.5686,1.5687,1.5688,1.5788,1.5789,1.579,1.5798,1.5797,1.5796,1.5794,1.5899,1.5904,1.5909,0,0,0,0,0,0,0,0,0,0,0,0,0,1.5587,1.5501,1.5685,1.5704,1.5707,1.5787,1.5789,1.5791,1.5799,1.5797,1.5795,1.5794,1.5898,1.5904,1.5909,1.5979,0,0,1.5927,1.593,0,0,0,0,0,0,0,0,1.5582,1.5594,1.57,1.5703,1.5706,1.5778,1.5761,1.5854,1.5799,1.5764,1.5795,1.5793,1.5862,1.587,1.5893,1.5984,1.5988,1.5928,1.5931,1.5934,1.5935,0,0,0,0,0,0,0,1.5575,1.5589,1.5726,1.5702,1.5705,1.5707,1.5718,1.5779,1.5821,1.5767,1.5768,1.5779,1.5863,1.5887,1.5896,1.599,1.5927,1.5933,1.5936,1.5938,1.6139,1.6141,0,0,0,0,0,0,1.5566,1.5584,1.5723,1.5729,1.5638,1.5712,1.5724,1.5757,1.582,1.5828,1.5781,1.5779,1.5878,1.5889,1.5899,1.5983,1.5933,1.5939,1.5942,1.6138,1.614,1.6142,0,0,0,0,0,0,1.5561,1.5578,1.5719,1.5657,1.5675,1.5717,1.5754,1.576,1.5784,1.5831,1.5838,1.5798,1.5877,1.5891,1.5958,1.5987,1.5942,1.5947,1.6135,1.6138,1.6141,1.6151,0,0,0,0,0,0,1.5556,1.5576,1.5604,1.5657,1.5678,1.5776,1.5756,1.5763,1.5794,1.5793,1.5849,1.5857,1.5877,1.5949,1.5964,1.5994,1.5951,1.6133,1.6137,1.614,1.6148,1.6154,1.6159,0,0,0,0,0,1.5549,1.5603,1.5605,1.5622,1.5713,1.5778,1.579,1.5812,1.5797,1.5824,1.5853,1.5855,1.5981,1.5956,1.5973,1.6005,1.6131,1.6136,1.614,1.6146,1.6153,1.6159,0,0,0,0,0,0,1.5553,1.5611,1.5613,1.5686,1.5727,1.5779,1.5814,1.5818,1.5865,1.5862,1.5888,1.59,1.5966,1.5992,1.5963,1.6074,1.6055,1.6062,1.6054,1.6061,1.6066,1.6058,1.5956,0,0,0,0,0,1.5562,1.5609,1.5658,1.5718,1.5738,1.5772,1.5801,1.5814,1.5858,1.5875,1.591,1.5952,1.6,1.6032,1.608,1.6152,1.6164,1.6182,1.6187,1.6191,1.6197,1.6235,1.6244,1.6156,1.6156,1.6155,0,0,1.5582,1.5619,1.5648,1.5719,1.5752,1.58,1.5787,1.5839,1.5875,1.5883,1.5948,1.5974,1.6023,1.6092,1.6124,1.6116,1.6224,1.6197,1.6199,1.6204,1.6241,1.6249,1.6256,1.6158,1.6158,1.6157,0,0,1.5641,1.5675,1.5728,1.576,1.581,1.5832,1.5845,1.5896,1.5913,1.5978,1.5985,1.6028,1.6112,1.6145,1.6174,1.6243,1.6246,1.6258,1.6285,1.6321,1.6328,1.6335,1.6358,1.6366,1.6264,1.6264,1.6264,0,1.566,1.5733,1.5754,1.5805,1.5836,1.5844,1.5897,1.5928,1.5991,1.6011,1.6001,1.6105,1.6138,1.6214,1.6231,1.6254,1.6268,1.6252,1.6326,1.6332,1.6338,1.6361,1.6369,1.6265,1.6265,1.6265,1.6265,0,1.5751,1.5802,1.5838,1.5897,1.5931,1.5983,1.6012,1.6044,1.6053,1.6076,1.6141,1.6182,1.6236,1.6256,1.6266,1.6333,1.6326,1.632,1.6301,1.6347,1.6368,1.6377,1.6267,1.6266,1.6266,1.6266,0,0,1.5818,1.5886,1.5899,1.5924,1.5979,1.6018,1.6069,1.6122,1.6148,1.6191,1.6233,1.6303,1.6297,1.6329,1.6344,1.6376,1.6426,1.6366,1.6368,1.6375,1.6499,1.6502,1.6512,1.6428,1.643,1.6431,1.6495,0,1.5882,1.5973,1.5993,1.6071,1.6117,1.6125,1.6169,1.6207,1.6229,1.6271,1.6296,1.6344,1.6334,1.6353,1.6385,1.6413,1.6451,1.6409,1.6468,1.6469,1.6454,1.6523,1.6527,1.6585,1.6503,1.6505,1.6506,0,1.597,1.6013,1.6095,1.6141,1.6161,1.6201,1.6249,1.6289,1.6331,1.6345,1.6379,1.639,1.6442,1.6421,1.6493,1.6464,1.6489,1.6506,1.6509,1.6514,1.649,1.6529,1.6604,1.6612,1.6519,1.6518,1.6517,0,1.6008,1.6086,1.6145,1.6167,1.6223,1.625,1.6274,1.6315,1.6344,1.6387,1.6406,1.6454,1.648,1.6517,1.654,1.6523,1.661,1.6591,1.6622,1.6621,1.664,1.6638,1.6718,1.6658,1.6658,1.6657,1.6657,0,1.6077,1.6127,1.6162,1.6198,1.6253,1.6275,1.6329,1.6354,1.6389,1.643,1.644,1.6478,1.6506,1.6547,1.6565,1.6621,1.6633,1.6645,1.665,1.6644,1.6642,1.666,1.6656,1.666,1.6659,1.6659,1.6658,0,1.6128,1.6154,1.6218,1.6265,1.6277,1.6316,1.6356,1.639,1.6412,1.6463,1.6476,1.6511,1.656,1.6586,1.6648,1.666,1.6722,1.6724,1.6707,1.6709,1.6737,1.6734,1.6831,1.6844,1.6776,1.6777,1.6777,0,1.6171,1.6209,1.6258,1.6286,1.631,1.6354,1.6384,1.6406,1.6437,1.6486,1.6515,1.6564,1.6604,1.6682,1.6713,1.6759,1.6762,1.6793,1.677,1.6762,1.6761,1.6758,1.6761,1.6797,1.6798,1.6798,1.6798,0,1.6242,1.6252,1.6294,1.634,1.6375,1.6412,1.6449,1.6471,1.6499,1.6533,1.6582,1.6613,1.6675,1.6724,1.6772,1.6797,1.6802,1.6805,1.6815,1.6809,1.6797,1.6802,1.6717,1.6803,1.6803,1.6802,1.6802,1.6802,1.6289,1.6322,1.6361,1.6407,1.6437,1.6471,1.6505,1.653,1.6572,1.6623,1.6634,1.6686,1.6725,1.6791,1.6817,1.6857,1.6851,1.6865,1.6869,1.6871,1.6872,1.6791,1.6867,1.6867,1.6866,1.6866,1.6866,0,1.6359,1.6384,1.6426,1.6477,1.6512,1.6513,1.6553,1.6583,1.6628,1.6664,1.6703,1.6759,1.6805,1.6839,1.6886,1.6911,1.6915,1.6923,1.6921,1.6926,1.6875,1.6862,1.6919,1.6919,1.6919,1.6919,1.6919,1.6919,1.64,1.6455,1.6469,1.6539,1.6564,1.6614,1.6637,1.6668,1.6696,1.6758,1.6796,1.6817,1.6851,1.69,1.6943,1.6951,1.6967,1.6975,1.6984,1.6936,1.693,1.6924,1.6912,1.6979,1.6979,1.7031,1.7031,1.7032]},{"header":{"parameterUnit":"m.s-1","parameterCategory":1,"la1":30.2991,"la2":30.254,"lo1":-89.0895,"lo2":-89.0444,"dy":0.0017,"dx":0.0017,"nx":28,"ny":28,"refTime":"2023-07-31T09:00:00:Z","depth":0,"parameterNumber":3,"parameterNumberName":"V-component_of_WINDS"},"data":[0,0,0,0,0,0,0,0,0,0,0,0,0,0,0,0,0,0,0,0,0,0,0,0,0,0,0,0,0,0,0,0,0,0,0,0,0,0,0,0,0,0,0,0,0,0,0,0,0,0,0,0,0,0,0,0,0,0,4.6469,4.6468,0,4.6375,4.6374,4.6373,4.6245,4.6243,4.624,4.6238,4.6144,4.6144,4.6143,0,0,0,0,0,0,0,0,0,0,0,0,0,4.6536,4.6535,4.6469,4.6467,4.6466,4.6376,4.6374,4.6373,4.6245,4.6242,4.624,4.6237,4.6144,4.6144,4.6143,0,0,0,0,0,0,0,0,0,0,0,0,0,4.6481,4.6535,4.6469,4.6392,4.6384,4.6376,4.6374,4.6373,4.6246,4.6242,4.6239,4.6236,4.6144,4.6144,4.6143,4.6204,0,0,4.6141,4.6141,0,0,0,0,0,0,0,0,4.6484,4.6479,4.6404,4.6397,4.6388,4.6318,4.6363,4.6316,4.6247,4.6298,4.6238,4.6235,4.6205,4.6199,4.6189,4.62,4.6195,4.6141,4.614,4.614,4.614,0,0,0,0,0,0,0,4.6488,4.6482,4.6432,4.6403,4.6393,4.6361,4.635,4.6354,4.6271,4.6293,4.6284,4.6274,4.62,4.619,4.6186,4.6194,4.6141,4.614,4.614,4.6139,4.6247,4.625,0,0,0,0,0,0,4.6503,4.6486,4.6435,4.6429,4.6429,4.6363,4.635,4.6344,4.6271,4.6256,4.6277,4.6269,4.6193,4.6187,4.6182,4.6246,4.614,4.6139,4.6139,4.6244,4.6248,4.6251,0,0,0,0,0,0,4.6505,4.65,4.6438,4.6455,4.6444,4.6365,4.6359,4.6344,4.6333,4.6258,4.6243,4.6282,4.619,4.6183,4.6199,4.6241,4.6139,4.6138,4.624,4.6245,4.625,4.6376,0,0,0,0,0,0,4.6508,4.6502,4.6524,4.6456,4.6444,4.6458,4.6362,4.6344,4.6333,4.632,4.6259,4.6246,4.6187,4.62,4.6198,4.6238,4.6138,4.6236,4.6242,4.6248,4.6368,4.6385,4.64,0,0,0,0,0,4.6511,4.6564,4.6526,4.652,4.6471,4.646,4.6453,4.6384,4.6337,4.6358,4.6309,4.6247,4.6237,4.6203,4.6199,4.624,4.6233,4.624,4.6248,4.6361,4.6382,4.6399,0,0,0,0,0,0,4.664,4.6554,4.651,4.6544,4.651,4.6439,4.6464,4.6409,4.6388,4.6378,4.6293,4.628,4.6306,4.6275,4.6238,4.6293,4.6225,4.6233,4.6313,4.6332,4.6348,4.6354,4.6137,0,0,0,0,0,4.6672,4.6671,4.6596,4.6632,4.6618,4.6544,4.6537,4.6486,4.6448,4.6434,4.6386,4.6352,4.634,4.6335,4.632,4.6363,4.6347,4.6389,4.6405,4.6418,4.6425,4.6443,4.646,4.6276,4.6276,4.6276,0,0,4.6739,4.6692,4.6696,4.6657,4.6625,4.6625,4.6533,4.6538,4.6536,4.6434,4.6445,4.641,4.6366,4.6395,4.6406,4.6369,4.6472,4.6428,4.6439,4.6438,4.6452,4.647,4.6485,4.6281,4.628,4.6279,0,0,4.686,4.6825,4.685,4.682,4.6772,4.6723,4.6729,4.6665,4.6637,4.6648,4.657,4.6568,4.6551,4.6521,4.6505,4.6614,4.6555,4.6611,4.6693,4.6712,4.6726,4.6739,4.6776,4.679,4.6618,4.6619,4.6619,0,4.6949,4.6945,4.687,4.6879,4.6863,4.6771,4.6795,4.6769,4.672,4.6711,4.6672,4.6646,4.661,4.663,4.6657,4.6647,4.665,4.6617,4.673,4.6742,4.6752,4.6787,4.6801,4.6626,4.6625,4.6624,4.6624,0,4.7056,4.7055,4.7081,4.7035,4.7022,4.704,4.6966,4.6963,4.6913,4.6868,4.6878,4.6832,4.6805,4.6806,4.6759,4.6819,4.6798,4.6746,4.6675,4.6778,4.6809,4.6821,4.6636,4.6633,4.6631,4.6629,0,0,4.7255,4.7166,4.7177,4.7154,4.7094,4.7092,4.7104,4.7078,4.7075,4.7045,4.7051,4.7038,4.6989,4.697,4.6918,4.6935,4.7021,4.6879,4.6877,4.6906,4.7082,4.7121,4.7137,4.6982,4.6984,4.6986,4.7085,0,4.7363,4.7379,4.7311,4.7344,4.7341,4.7253,4.7263,4.7227,4.7185,4.7176,4.7129,4.712,4.7057,4.7044,4.7057,4.7008,4.7055,4.7,4.6987,4.6987,4.6999,4.7153,4.7194,4.729,4.7097,4.7099,4.71,0,4.7491,4.7466,4.7499,4.7436,4.7432,4.7443,4.7411,4.7405,4.7362,4.733,4.7308,4.7248,4.7254,4.7188,4.7195,4.7159,4.715,4.7125,4.7127,4.7121,4.7049,4.7151,4.7319,4.7333,4.7119,4.7117,4.7116,0,4.7631,4.7606,4.7621,4.7604,4.7532,4.7541,4.7511,4.7465,4.7453,4.7426,4.7417,4.7392,4.7378,4.7359,4.7293,4.7251,4.7307,4.7236,4.7279,4.7281,4.7294,4.7294,4.7462,4.7291,4.7291,4.7291,4.729,0,4.7758,4.7781,4.7682,4.7692,4.7714,4.7637,4.7661,4.7622,4.7582,4.7582,4.7504,4.7506,4.7419,4.741,4.7359,4.7371,4.7366,4.7339,4.7325,4.7345,4.7348,4.7337,4.7328,4.7294,4.7294,4.7293,4.7292,0,4.7917,4.7852,4.7863,4.7793,4.7776,4.7796,4.7735,4.7741,4.7694,4.7694,4.769,4.7616,4.7601,4.7534,4.7504,4.7469,4.7498,4.7471,4.7513,4.7503,4.755,4.7546,4.7715,4.7732,4.7553,4.7555,4.7556,0,4.8001,4.8017,4.7948,4.7942,4.7916,4.7908,4.7894,4.7818,4.7808,4.7759,4.777,4.775,4.7729,4.771,4.7653,4.7629,4.76,4.7661,4.7596,4.7615,4.7598,4.7598,4.7598,4.7674,4.7677,4.7679,4.768,0,4.8157,4.8124,4.8108,4.8081,4.8067,4.8042,4.8012,4.8012,4.7927,4.7919,4.7903,4.7887,4.7855,4.7835,4.7802,4.777,4.7711,4.7701,4.7709,4.773,4.7752,4.7739,4.7549,4.7697,4.7696,4.7694,4.7694,4.7693,4.828,4.8288,4.8241,4.8226,4.8195,4.8169,4.817,4.8122,4.8108,4.8076,4.8032,4.8022,4.7977,4.7925,4.7898,4.7888,4.7855,4.7868,4.7871,4.7875,4.7884,4.7755,4.7882,4.7882,4.7881,4.7881,4.788,0,4.843,4.8395,4.8381,4.8342,4.8329,4.8275,4.8238,4.8231,4.8223,4.8186,4.8167,4.8148,4.8128,4.8069,4.8043,4.8046,4.8018,4.8042,4.804,4.8033,4.7917,4.7911,4.8065,4.8065,4.8065,4.8065,4.8065,4.8064,4.8506,4.8517,4.8479,4.8474,4.8439,4.8428,4.8412,4.8386,4.8356,4.8339,4.8321,4.8283,4.8237,4.8206,4.8185,4.8168,4.8161,4.8193,4.8167,4.8059,4.8042,4.8025,4.8019,4.8193,4.8193,4.8284,4.8285,4.8286]}]]